Regional Weather Roundup
Issued by NWS Newport/Morehead, NC

Current Version | Previous Version | Graphics & Text | Print | Product List | Glossary Off
Versions: 1 2 3 4 5 6 7 8 9 10 11 12 13 14 15 16 17 18 19 20 21 22 23 24 25 26 27 28 29 30 31 32 33 34 35 36 37 38 39 40 41 42 43 44 45 46 47 48 49 50

000
ASUS42 KMHX 301725
RWRMHX
WEATHER ROUNDUP FOR EASTERN NORTH CAROLINA
NATIONAL WEATHER SERVICE NEWPORT/MOREHEAD CITY NC
100 PM EDT THU JUL 30 2015

NOTE: "FAIR" INDICATES FEW OR NO CLOUDS BELOW 12,000 FEET
WITH NO SIGNIFICANT WEATHER AND/OR OBSTRUCTIONS TO VISIBILITY

NCZ015>017-031-032-045>047-102-103-301800-
NORTH COAST

CITY           SKY/WX    TMP DP  RH WIND       PRES   REMARKS
EDENTON          N/A     89  71  54 CALM      29.94F
ELIZABETH CITY MOSUNNY   89  75  63 E9        29.95F
KITTY HAWK     MOSUNNY   87  78  75 S8G16     29.95S HX 100
MANTEO         MOSUNNY   85  76  74 S14       29.96S

$$

NCZ045>047-081-094-103-104-301800-
CENTRAL COAST

CITY           SKY/WX    TMP DP  RH WIND       PRES   REMARKS
FRISCO         CLOUDY    83  77  82 SW10      29.98F
SWANQUARTER      N/A     88 N/A N/A S12G22    29.91S

$$

NCZ095-097-098-100-101-301800-
SOUTHERN COAST

CITY           SKY/WX    TMP DP  RH WIND       PRES   REMARKS
BEAUFORT       MOSUNNY   86  78  77 S14       29.95F
CEDAR ISLAND     N/A     90 N/A N/A S14G22    30.00S
JACKSONVILLE   MOSUNNY   84  75  74 NE9       29.94F
PINEY ISLAND   MOSUNNY  N/A N/A N/A MISG      29.95F
WILMINGTON     MOSUNNY   90  74  59 NW7       29.94F


$$

NCZ011>013-027>030-043-044-078>080-089-090>093-098-301800-
COASTAL PLAIN

CITY           SKY/WX    TMP DP  RH WIND       PRES   REMARKS
AHOSKIE        MOSUNNY   88  72  58 CALM      29.95F
CLINTON        SUNNY     91  71  51 NE8       29.95F
ELIZABETHTOWN  SUNNY     92  67  44 CALM      29.94F
GOLDSBORO      SUNNY     91  70  48 CALM      29.93F
GREENVILLE     SUNNY     91  72  52 SW5       29.96F
HAVELOCK       MOSUNNY   89  77  67 S10       29.96S HX 101
KENANSVILLE    SUNNY     89  66  47 NE3       29.96F
KINSTON        SUNNY     90  68  48 CALM      29.96F
NEW BERN       CLOUDY    86  73  65 SW6       29.95F
RICHLANDS      MOSUNNY   90  72  55 N6        29.94S
ROCKY MOUNT    SUNNY     92  70  48 MISG      29.95F
WASHINGTON     SUNNY     89  71  56 CALM      29.95S
WHITEVILLE     SUNNY     90  69  50 NE6       29.94F

$$

AMZ130-135-150-152-154-156-158-170-250-252-270-ANZ085-086-088-633-658-670-301800-
MARINE OBSERVATIONS

STATION/POSITION TIME  TEMP    WIND        PRES    WAVE   SWELL
                       AIR SEA DIR/SP/G            HT/PER HT/PER
                 (UTC) (F)     (DEG/KT/KT) (MB)    (FT/S) (FT/S)
CHESAPEAKE LIGHT 1700   80     170/ 10/ 10 1015.1
64 E VA BEACH    1650   81 82  190/ 14/ 16 1014.5    3/ 9   2/ 9
DUCK             1700   82 64  120/  8/ 10 1013.5
2 E DUCK         1611      73                N/A     2/11   2/11
OREGON INLET     1700   83 82  190/ 17/ 19 1014.5
13E OREGON INLT  1700      81                N/A     3/10   2/11
HATTERAS CG      1700   86 83  170/  6/ 10 1014.5
DIAMOND BUOY     1650   84 85  170/ 17/ 19 1015.1    4/ 5   2/ 8
CAPE LOOKOUT     1700   83     170/  9/ 11 1013.9
BEAUFORT LAB     1700   83 82  180/ 10/ 13 1013.5
30 SE NEW RVR IN NOT AVBL
27 SE WRIGHTSVLE 1700   78 83   70/  2/  4   N/A
5 SE WRIGHTSVLE  1608   81 83   50/  6/  8 1014.4
225 S CAPE HAT   1650   82 81  190/ 21/ 27 1014.9    8/ 8
41 SE CHARLESTON 1650   82 85  360/ 12/ 14 1013.6    3/ 8   3/ 8

$$


USA.gov is the U.S. government's official web portal to all federal, state and local government web resources and services.